Voltar ao catálogo

LES 5

AtivoMilitarMEO
NORAD 2866·PAYLOAD·🇺🇸 United States

Lançado Jul 1, 1967 de Cape Canaveral Space Force Station

Loading…

Próximas Passagens (próximas 24 horas)

TLE

AtualizadoSource: Space-Track

Época: Sep 14, 2026, 14:08 UTC

1 02866U 67066E   26257.58948774 -.00000123  00000-0  00000-0 0  9998
2 02866   2.8253  93.7593 0051975 214.6940 329.7386  1.09426218132011

Acompanhe LES 5 em tempo real com AllMySat

Download on the App Store